sat.trackr.live / text

‹ back to catalog

STARLINK-35710

NORAD 66212 · 2025-244G

PAYLOAD ACTIVE UNKNOWN

§ Identity

Operator
Country
US
Launch date
2025-10-28
Launch site
AFWTR
Launch vehicle
Mass (kg)
RCS (m²)

Purposes: comms

External: N2YO · Heavens-Above · Gunter

§ Orbital elements

Epoch: 2026-05-25T05:24:32.495040Z

Period
94.10 min
Inclination
53.1582°
Eccentricity
0.0001346
Mean motion
15.30209775 rev/d
Perigee alt
474.3 km
Apogee alt
476.1 km
Semi-major
6,853.3 km
B*
4.7665e-4
RAAN
234.6839°
Arg perigee
77.9982°
Mean anomaly
282.1170°
Rev number
3,337

§ Raw data

STARLINK-357101 66212U 25244G   26145.22537610  .00013788  00000+0  47665-3 0  99952 66212  53.1582 234.6839 0001346  77.9982 282.1170 15.30209775 33370

JSON: /api/v1/satellites/66212 · /tle

For live sub-satellite position, see the globe view (requires WebGL).

§ Visibility from observer

Set your observer location to see the next 7 days of passes ≥ 10°. The values pass through the URL so the page stays shareable.

No JS? Fill the form by hand. The geolocation button needs JavaScript.